TimeCDT,TemperatureF,Dew PointF,Humidity,Sea Level PressureIn,VisibilityMPH,Wind Direction,Wind SpeedMPH,Gust SpeedMPH,PrecipitationIn,Events,Conditions,WindDirDegrees,DateUTC
12:52 AM,37.9,30.0,73,29.96,10.0,WNW,8.1,-,N/A,,Clear,290,2012-10-15 05:52:00
1:52 AM,37.9,30.0,73,29.96,10.0,WNW,8.1,-,N/A,,Clear,300,2012-10-15 06:52:00
2:52 AM,36.0,28.9,76,29.97,10.0,West,6.9,-,N/A,,Clear,280,2012-10-15 07:52:00
3:52 AM,34.0,28.0,79,29.96,10.0,North,-9999.0,-,N/A,,Clear,0,2012-10-15 08:52:00
4:52 AM,33.1,28.0,82,29.97,10.0,West,4.6,-,N/A,,Clear,260,2012-10-15 09:52:00
5:52 AM,33.1,28.0,82,29.96,10.0,West,5.8,-,N/A,,Clear,280,2012-10-15 10:52:00
7:52 AM,30.9,26.1,82,29.98,9.0,West,4.6,-,N/A,,Clear,280,2012-10-15 12:52:00
8:52 AM,39.9,33.1,77,29.99,9.0,Calm,Calm,-,N/A,,Clear,0,2012-10-15 13:52:00
9:52 AM,48.9,36.0,61,29.99,10.0,Calm,Calm,-,N/A,,Clear,0,2012-10-15 14:52:00
10:52 AM,55.0,36.0,49,29.99,10.0,Calm,Calm,-,N/A,,Clear,0,2012-10-15 15:52:00
11:52 AM,60.1,37.0,42,29.97,10.0,Variable,6.9,-,N/A,,Clear,0,2012-10-15 16:52:00
1:52 PM,64.9,36.0,34,29.91,10.0,SW,9.2,-,N/A,,Clear,220,2012-10-15 18:52:00
2:52 PM,66.0,37.0,34,29.88,10.0,South,10.4,-,N/A,,Clear,190,2012-10-15 19:52:00
3:52 PM,66.0,37.0,34,29.87,10.0,South,12.7,-,N/A,,Clear,180,2012-10-15 20:52:00
4:52 PM,66.9,37.0,33,29.85,10.0,South,16.1,-,N/A,,Clear,180,2012-10-15 21:52:00
5:52 PM,64.0,37.9,38,29.84,10.0,South,11.5,-,N/A,,Clear,170,2012-10-15 22:52:00
6:52 PM,62.1,39.9,44,29.82,10.0,SSE,12.7,-,N/A,,Clear,160,2012-10-15 23:52:00
7:52 PM,59.0,41.0,51,29.81,10.0,South,15.0,-,N/A,,Clear,170,2012-10-16 00:52:00
8:52 PM,55.9,39.9,55,29.81,10.0,South,11.5,-,N/A,,Clear,170,2012-10-16 01:52:00
9:52 PM,55.9,41.0,57,29.79,10.0,South,15.0,-,N/A,,Clear,170,2012-10-16 02:52:00
10:52 PM,54.0,41.0,62,29.77,10.0,South,15.0,-,N/A,,Clear,170,2012-10-16 03:52:00
11:52 PM,52.0,41.0,66,29.74,10.0,South,12.7,-,N/A,,Clear,180,2012-10-16 04:52:00